Regional Weather Roundup
Issued by NWS Grand Forks, ND

Home | Current Version | Previous Version | Text Only | Print | Product List | Glossary Off
Versions: 1 2 3 4 5 6 7 8 9 10 11 12 13 14 15 16 17 18 19 20 21 22 23 24 25 26 27 28 29 30 31 32 33 34 35 36 37 38 39 40 41 42 43 44 45 46 47 48 49 50

000
ASUS43 KFGF 190310
RWRFGF
PRAIRIE TO PINES  WEATHER ROUNDUP
NATIONAL WEATHER SERVICE EASTERN NORTH DAKOTA/GRAND FORKS ND
1000 PM CDT WED APR 18 2018

 **SATELLITE DATA USED TO AUGMENT SKY COVER AT AUTOMATED STATIONS**
 *****  WEATHER ACROSS EASTERN NORTH DAKOTA  *****

CITY           SKY/WX    TMP DP  RH WIND       PRES   REMARKS
GRAND FORKS    MOCLDY    35  31  85 NW5       30.25R
GRAND FRKS AFB FAIR      33  28  80 NW5       30.25R
DEVILS LAKE    FAIR      35  26  69 CALM      30.27R
FARGO          FAIR      35  32  88 N8        30.24R
WAHPETON ARPT  FAIR      37  32  81 NW9       30.24R
$$

 ***** WEATHER ACROSS CENTRAL AND WESTERN NORTH DAKOTA  *****

CITY           SKY/WX    TMP DP  RH WIND       PRES   REMARKS
BISMARCK       FAIR      39  31  72 N5        30.29R
MINOT          FAIR      38  34  85 W7        30.28R
JAMESTOWN      FAIR      39  30  70 CALM      30.25R
MINOT AFB      FAIR      34  32  94 NW8       30.27R
GARRISON         N/A     36  34  92 N8        30.28R
WILLISTON      CLOUDY    38  34  85 N8        30.31R
DICKINSON      FAIR      34  31  88 E6        30.25R
HETTINGER      FAIR      36  30  79 NE8       30.28R
$$

 *****  OTHER AIRPORT OBSERVATIONS IN OUR AREA  *****

CITY           SKY/WX    TMP DP  RH WIND       PRES   REMARKS
WALHALLA       FAIR      37  28  70 CALM      30.26R
GRAFTON AIRPOR FAIR      39  28  65 NW3       30.28R
VALLEY CITY AR FAIR      36  32  87 NW7       30.27R
CANDO          FAIR      37  32  81 CALM      30.27R
CAVALIER APRT    N/A     41  32  70 NE5       30.27R
GWINNER          N/A     36  32  87 NW8       30.25R
SHEYENNE NWR     N/A     39  29  68 N5        29.95
ROLLA          FAIR      36  34  93 CALM      30.26R
 ***** THE ABOVE OBSERVATIONS ARE NON NWS ARE NOT QUALITY
       CONTROLLED AND MAY MIS-REPORT RAIN FOR SNOW...
$$

  *****  WEATHER ACROSS NORTHERN MINNESOTA  *****

CITY           SKY/WX    TMP DP  RH WIND       PRES   REMARKS
FLAG ISLAND    FAIR      34  10  37 CALM      30.25S
WARROAD        FAIR      34  19  55 CALM      30.26R
ROSEAU         FAIR      37  27  65 CALM      30.26R
HALLOCK        FAIR      43  19  39 W3        30.26R
THF RVR FALLS  FAIR      39  18  42 N8        30.26R
BAUDETTE       FAIR      37  11  34 NE6       30.25R
WASKISH        FAIR      30  14  51 CALM      30.24R
CROOKSTON      FAIR      37  25  60 NE6       30.26R
GREENBUSH NDAW   N/A     32  25  74 SE3         N/A
$$
  *****  WEATHER ACROSS CENTRAL AND WEST MINNESOTA  *****

CITY           SKY/WX    TMP DP  RH WIND       PRES   REMARKS
FOSSTON        FAIR      34  12  40 CALM      30.24R
BEMIDJI        FAIR      31  16  54 N3        30.22R
PARK RAPIDS    FAIR      38  17  42 NE3       30.19R
ELBOW LAKE     FAIR      34  30  84 W3        30.22R
WADENA         FAIR      37  18  44 NE5       30.20R
DETROIT LAKES  FAIR      41  21  45 CALM      30.23R
MOORHEAD       FAIR      36  32  87 NW7       30.25R
FERGUS FALLS   FAIR      39  27  60 NW3       30.21R
MORRIS MN      FAIR      36  28  75 NW8       30.21R
STAPLES        FAIR      30  21  69 CALM      30.20R
$$
  *****  WEATHER ELSEWHERE ACROSS MINNESOTA  *****

CITY           SKY/WX    TMP DP  RH WIND       PRES   REMARKS
DULUTH         FAIR      33  10  38 N3        30.19R
INTRNTL FALLS  FAIR      36  12  37 NE6       30.23R
ELY            FAIR      28  18  64 CALM      30.21R
CLOQUET        FAIR      28  16  59 N7        30.20R WCI  21
WHEATON        FAIR      37  28  70 W3        30.25R
BRAINERD       FAIR      40  12  32 E7        30.20R
HIBBING        FAIR      31  15  52 SE3       30.21R
ALEXANDRIA     FAIR      40  23  50 NE7       30.20R
SAINT CLOUD    FAIR      35  14  42 N5        30.18R
MINNEAPOLIS    CLOUDY    39  23  52 N13       30.15R
$$

  *****  WEATHER ACROSS SOUTH DAKOTA  *****

CITY           SKY/WX    TMP DP  RH WIND       PRES   REMARKS
SIOUX FALLS    MOCLDY    32  30  92 NW7       30.21R
BROOKINGS      FAIR      33  27  78 NW7       30.22R
WATERTOWN      FAIR      35  30  82 W8        30.22R
HURON          MOCLDY    39  30  70 N9        30.25R
SISSETON         N/A     37  30  75 SW6       30.23R
ABERDEEN       FAIR      37  31  78 N8        30.26R
MITCHELL       CLOUDY    37  32  82 CALM      30.26R
PIERRE         FAIR      38  34  85 N6        30.27R
MOBRIDGE       FAIR      38  27  64 NE12      30.25R
RAPID CITY     CLOUDY    42  34  73 E10       30.25R
$$

  *****  SOME WEATHER IN NEARBY STATES *****

CITY           SKY/WX    TMP DP  RH WIND       PRES   REMARKS
GLASGOW MT     CLOUDY    45  35  68 E14       30.25R
GREAT FALLS MT FAIR      43  18  36 E7        30.14R
CHEYENNE WY    FAIR      36  17  46 E9        30.26R
SCOTTSBLUFF NE FAIR      39  25  57 NE8       30.25R
OMAHA NE       CLOUDY    40  33  76 NW17      30.20R
DES MOINES IA  FAIR      33  28  81 NW12      30.16R WCI  24
DAVENPORT IA   CLOUDY    31  29  92 NW12      30.06R WCI  22
CHICAGO IL     LGT SNOW  32  32 100 NW12      29.91R FOG     WCI  23
EAU CLAIRE WI  FAIR      36  23  59 N7        30.11R
LA CROSSE WI   MOCLDY    34  32  92 N5        30.07R
$$

  *****  SOME NATIONAL WEATHER *****

CITY           SKY/WX    TMP DP  RH WIND       PRES   REMARKS
LA GUARDIA NY  FAIR      50  29  44 MISG      29.77F
RALEIGH NC     FAIR      73  43  33 SW17G25   29.73S
ATLANTA GA     FAIR      71  52  50 W9        29.94S
NEW ORLEANS LA FAIR      70  63  78 SW8       30.06R
OKLAHOMA CITY  FAIR      58  26  29 NE18      30.22R
ALBUQUERQUE NM FAIR      61  11  14 E21       30.11R
SALT LAKE CITY MOCLDY    50  31  48 CALM      29.98F
LOS ANGELES CA FAIR      57  47  69 W17       29.99S
BOISE ID       CLOUDY    59  21  23 E6        29.94F
SEATTLE WA     MOCLDY    53  39  59 N6        30.16S
$$

*** WEATHER ACROSS MANITOBA...SASKATCHEWAN AND ONTARIO ***
                ***ONTARIO***

CITY           SKY/WX    TMP DP  RH WIND       PRES   REMARKS
GERALDTON      CLEAR     32  18  55 N7        30.17R
THUNDER BAY    CLEAR     36  14  41 VRB2      30.20R
SIOUX LOOKOUT  CLEAR     27  16  63 NE2       30.25R
TORONTO        MOCLDY    34  25  69 W9        29.82F
BIG TROUT LK   CLEAR     30   5  34 E3        30.29F
PICKLE LAKE    NOT AVBL
DRYDEN         CLEAR     39   7  26 NE5       30.24R
KENORA         PTCLDY    37  12  35 E3        30.26R
$$
                *** MANITOBA***

CITY           SKY/WX    TMP DP  RH WIND       PRES   REMARKS
BRANDON        MOCLDY    36  30  80 NW8       30.28R
DAUPHIN        PTCLDY    37  34  87 W10       30.26R
ISLAND LAKE    NOT AVBL
PILOT MOUND      N/A     39  21  48 E6          N/A
THE PAS        PTCLDY    41  27  56 W9        30.19R
THOMPSON       MOCLDY    41  28  60 SW3       30.15R
WINNIPEG       PTCLDY    36  27  69 N6        30.26R
LYNN LAKE      CLOUDY    37  28  70 W9        30.11R
CHURCHILL      MOCLDY    34  25  69 S13       30.09F WCI  25
GILLAM         PTCLDY    39  10  30 S8        30.16S
$$
                ***SASKATCHEWAN***

CITY           SKY/WX    TMP DP  RH WIND       PRES   REMARKS
ESTEVAN        CLOUDY    34  32  93 NW7       30.30R
KINDERSLEY     PTCLDY    39  30  70 SE10      30.20R
LLOYDMINSTER   PTCLDY    39  27  60 SW3       30.18R
PRINCE ALBERT  CLEAR     39  28  65 SW5       30.24R
REGINA         CLEAR     32  30  93 S3        30.31R
YORKTON        CLEAR     36  28  75 SW7       30.28R
N. BATTLEFORD  CLEAR     36  30  80 NE2       30.24R
LA RONGE       CLEAR     34  25  69 CALM      30.18R
SASKATOON      PTCLDY    41  32  70 S3        30.26R
SWIFT CURRENT  PTCLDY    36  27  69 S12       30.23R
$$
NOTE: THESE ARE AUTOMATED STATIONS WITH LIMITED QUALITY CONTROL
      "FAIR" INDICATES FEW OR NO CLOUDS BELOW 12,000 FEET WITH NO
      SIGNIFICANT WEATHER AND/OR OBSTRUCTIONS TO VISIBILITY.
      SKY/WX - SKY CONDITION AND SIGNIFICANT WEATHER.
      TMP - AIR TEMPERATURE.    DP   - DEWPOINT TEMPERATURE.
      RH  - RELATIVE HUMIDITY.  PRES - PRESSURE.
      HX  - HEAT INDEX.         WCI  - WIND CHILL INDEX.
$



USA.gov is the U.S. government's official web portal to all federal, state and local government web resources and services.